Geneva, Switzerland

3:12 PM CET on February 22, 2017 (GMT +0100)
Geneva

Weather History for 06700 - October, 2013

Change the Weather History Date:

Wednesday, October 2, 2013

  Actual Average Record
Temperature  
Mean Temperature 61 °F -  
Max Temperature 67 °F 56 °F - ()
Min Temperature 55 °F 42 °F - ()
Degree Days  
Heating Degree Days 4    
Growing Degree Days 11 (Base 50)    
Moisture  
Dew Point 56 °F    
Average Humidity 84    
Maximum Humidity 100    
Minimum Humidity 57    
Precipitation  
Precipitation 0.00 in 0.10 in - ()
Sea Level Pressure  
Sea Level Pressure 29.96 in    
Wind  
Wind Speed 3 mph ()    
Max Wind Speed 9 mph    
Max Gust Speed -    
Visibility 5.2 miles    
Events      
T = Trace of Precipitation, MM = Missing Value Source: Averaged Metar Reports

Daily Weather History Graph

Daily Weather History Graph

Search for Another Location

Airport or City:

Trip Planner

Search our weather history database for the weather conditions in past years. The results will help you decide how hot, cold, wet, or windy it might be!

Date:

Astronomy

Oct. 02, 2013 Rise Set
Actual Time 7:35 AM CEST 7:13 PM CEST
Civil Twilight 7:05 AM CEST 7:43 PM CEST
Nautical Twilight 6:30 AM CEST 8:18 PM CEST
Astronomical Twilight 5:55 AM CEST 8:53 PM CEST
Moon 4:45 AM CEST (10/2) 5:46 PM CEST (10/2)
Length of Visible Light 12h 38m
Length of Day
11h 38m
Waning Crescent, 7% of the Moon is Illuminated
Oct 2
Waning Crescent
Oct 5
New
Oct 12
First Quarter
Oct 19
Full
Oct 27
Last Quarter

Hourly Weather History & Observations

Time (CEST) Temp. Dew Point Humidity Pressure Visibility Wind Dir Wind Speed Gust Speed Precip Events Conditions
12:00 AM 59 °F 57 °F 90% 29.90 in - North 1.2 mph - -  
12:20 AM 57.2 °F 57.2 °F 100% 29.89 in 5.0 mi North 2.3 mph - N/A   Partly Cloudy
12:50 AM 57.2 °F 57.2 °F 100% 29.92 in 5.0 mi Calm Calm - N/A   Scattered Clouds
1:00 AM 58 °F 56 °F 91% 29.90 in - NNW 1.2 mph - -  
1:20 AM 57.2 °F 57.2 °F 100% 29.92 in 5.0 mi Calm Calm - N/A   Partly Cloudy
1:50 AM 55.4 °F 55.4 °F 100% 29.92 in 5.0 mi Calm Calm - N/A   Scattered Clouds
2:00 AM 56 °F 54 °F 93% 29.91 in 5 mi Calm Calm - -   Mist
2:20 AM 55.4 °F 55.4 °F 100% 29.92 in 3.7 mi Calm Calm - N/A   Mostly Cloudy
2:50 AM 57.2 °F 57.2 °F 100% 29.92 in 3.7 mi NNE 2.3 mph - N/A   Mostly Cloudy
3:00 AM 58 °F 56 °F 93% 29.91 in - NE 2.3 mph - -  
3:50 AM 57.2 °F 57.2 °F 100% 29.92 in 5.0 mi Variable 2.3 mph - N/A   Mostly Cloudy
4:00 AM 57 °F 55 °F 92% 29.91 in - NW 1.2 mph - -  
4:20 AM 57.2 °F 57.2 °F 100% 29.92 in 4.3 mi Variable 1.2 mph - N/A   Mostly Cloudy
4:50 AM 55.4 °F 55.4 °F 100% 29.92 in 3.7 mi Calm Calm - N/A   Mostly Cloudy
5:20 AM 55.4 °F 55.4 °F 100% 29.92 in 3.7 mi Calm Calm - N/A   Scattered Clouds
5:50 AM 55.4 °F 55.4 °F 100% 29.95 in 3.7 mi NW 2.3 mph - N/A   Mostly Cloudy
6:00 AM 56 °F 54 °F 93% 29.94 in - North 1.2 mph - -  
6:20 AM 55.4 °F 55.4 °F 100% 29.95 in 3.7 mi Calm Calm - N/A   Mostly Cloudy
6:50 AM 55.4 °F 55.4 °F 100% 29.95 in 3.7 mi Calm Calm - N/A   Mostly Cloudy
7:00 AM 57 °F 55 °F 92% 29.94 in - North 3.5 mph - -  
7:20 AM 57.2 °F 57.2 °F 100% 29.95 in 3.7 mi Variable 2.3 mph - N/A   Mostly Cloudy
7:50 AM 57.2 °F 57.2 °F 100% 29.95 in 3.7 mi North 3.5 mph - N/A   Mostly Cloudy
8:00 AM 58 °F 55 °F 85% 29.94 in 4 mi North 3.5 mph - -   Mist
8:20 AM 57.2 °F 57.2 °F 100% 29.95 in 3.7 mi Variable 2.3 mph - N/A   Mostly Cloudy
8:50 AM 59.0 °F 57.2 °F 94% 29.95 in 4.3 mi Variable 1.2 mph - N/A   Mostly Cloudy
9:00 AM 58 °F 54 °F 84% 29.95 in - North 2.3 mph - -  
9:20 AM 59.0 °F 55.4 °F 88% 29.95 in 4.3 mi Calm Calm - N/A   Mostly Cloudy
9:50 AM 59.0 °F 55.4 °F 88% 29.98 in 4.3 mi Calm Calm - N/A   Mostly Cloudy
10:00 AM 59 °F 54 °F 79% 29.96 in - NE 3.5 mph - -  
10:20 AM 60.8 °F 57.2 °F 88% 29.98 in 4.3 mi ENE 3.5 mph - N/A   Mostly Cloudy
10:50 AM 60.8 °F 55.4 °F 82% 29.98 in 5.0 mi ENE 4.6 mph - N/A   Mostly Cloudy
11:20 AM 62.6 °F 57.2 °F 82% 29.98 in 5.6 mi East 5.8 mph - N/A   Mostly Cloudy
11:50 AM 62.6 °F 55.4 °F 77% 29.98 in 5.6 mi Variable 2.3 mph - N/A   Scattered Clouds
12:00 PM 63 °F 55 °F 68% 29.96 in - NE 4.6 mph - -  
12:20 PM 66.2 °F 57.2 °F 73% 29.98 in 5.6 mi Variable 2.3 mph - N/A   Scattered Clouds
12:50 PM 66.2 °F 55.4 °F 68% 29.98 in 6.2 mi East 5.8 mph - N/A   Scattered Clouds
1:00 PM 65 °F 56 °F 65% 29.95 in - ENE 6.9 mph - -  
1:20 PM 66.2 °F 55.4 °F 68% 29.98 in 6.2 mi ENE 6.9 mph - N/A   Scattered Clouds
1:50 PM 66.2 °F 55.4 °F 68% 29.98 in 6.2 mi ENE 5.8 mph - N/A   Scattered Clouds
2:00 PM 66 °F 55 °F 59% 29.95 in 6 mi ENE 6.9 mph - -   Haze
2:20 PM 66.2 °F 55.4 °F 68% 29.98 in 6.2 mi ESE 5.8 mph - N/A   Scattered Clouds
2:50 PM 66.2 °F 55.4 °F 68% 29.98 in 6.2 mi NE 5.8 mph - N/A   Scattered Clouds
3:00 PM 66 °F 55 °F 59% 29.94 in - NE 6.9 mph - -  
3:20 PM 66.2 °F 55.4 °F 68% 29.98 in 6.2 mi ENE 5.8 mph - N/A   Mostly Cloudy
3:50 PM 68.0 °F 55.4 °F 64% 29.98 in 6.2 mi NE 6.9 mph - N/A   Mostly Cloudy
4:00 PM 67 °F 55 °F 57% 29.94 in - NE 6.9 mph - -  
4:20 PM 68.0 °F 57.2 °F 68% 29.98 in 6.2 mi NE 6.9 mph - N/A   Mostly Cloudy
4:50 PM 66.2 °F 57.2 °F 73% 29.95 in 6.2 mi NNE 6.9 mph - N/A   Mostly Cloudy
5:20 PM 66.2 °F 57.2 °F 73% 29.98 in 6.2 mi NNE 6.9 mph - N/A   Mostly Cloudy
5:50 PM 66.2 °F 57.2 °F 73% 29.98 in 6.2 mi NNE 4.6 mph - N/A   Mostly Cloudy
6:00 PM 65 °F 56 °F 66% 29.94 in - NNE 4.6 mph - -  
6:20 PM 66.2 °F 57.2 °F 73% 29.98 in 6.2 mi NNE 3.5 mph - N/A   Mostly Cloudy
6:50 PM 64.4 °F 57.2 °F 77% 29.98 in 6.2 mi NNE 3.5 mph - N/A   Mostly Cloudy
7:00 PM 64 °F 57 °F 71% 29.96 in - NNE 3.5 mph - -  
7:20 PM 62.6 °F 59.0 °F 88% 29.98 in 6.2 mi ENE 3.5 mph - N/A   Mostly Cloudy
7:50 PM 62.6 °F 59.0 °F 88% 30.01 in 6.2 mi Variable 2.3 mph - N/A   Mostly Cloudy
8:00 PM 62 °F 56 °F 76% 29.99 in 7 mi NE 5.8 mph - -   Mist
8:20 PM 62.6 °F 57.2 °F 82% 30.01 in 6.2 mi Variable 3.5 mph - N/A   Mostly Cloudy
8:50 PM 60.8 °F 57.2 °F 88% 30.01 in 6.2 mi ENE 6.9 mph - N/A   Mostly Cloudy
9:00 PM 62 °F 56 °F 75% 30.00 in - ENE 8.1 mph - -  
9:20 PM 60.8 °F 57.2 °F 88% 30.04 in 6.2 mi NE 5.8 mph - N/A   Mostly Cloudy
9:50 PM 60.8 °F 57.2 °F 88% 30.04 in 5.6 mi ENE 6.9 mph - N/A   Mostly Cloudy
10:00 PM 61 °F 56 °F 77% 30.02 in - NE 5.8 mph - -  
10:20 PM 60.8 °F 57.2 °F 88% 30.04 in 5.6 mi ENE 8.1 mph - N/A   Mostly Cloudy
10:50 PM 60.8 °F 57.2 °F 88% 30.04 in 5.0 mi NE 8.1 mph - N/A   Mostly Cloudy
11:20 PM 60.8 °F 55.4 °F 82% 30.06 in 5.0 mi NE 9.2 mph - N/A   Mostly Cloudy
11:50 PM 59.0 °F 55.4 °F 88% 30.06 in 5.0 mi NE 8.1 mph - N/A   Mostly Cloudy